Regional Weather Roundup
Issued by NWS

Home | Current Version | Previous Version | Graphics & Text | Print | Product List | Glossary On
Versions: 1 2 3 4 5 6 7 8 9 10 11 12 13 14 15 16 17 18 19 20 21 22 23 24 25 26 27 28 29 30 31 32 33 34 35 36 37 38 39 40 41 42 43 44 45 46 47 48 49 50
972
ASUS45 KBOU 222007
RWRCO

WEATHER ROUNDUP FOR COLORADO
NATIONAL WEATHER SERVICE DENVER/BOULDER CO
100 PM MST SUN JAN 22 2017

NOTE: "FAIR" INDICATES FEW OR NO CLOUDS BELOW 12000 FEET WITH NO
SIGNIFICANT WEATHER AND/OR OBSTRUCTIONS TO VISIBILITY.

COZ001>005-013-030-031-222100-
...NORTHWEST COLORADO...

CITY           SKY/WX    TMP DP  RH WIND       PRES   REMARKS
CRAIG          FAIR      21  14  74 CALM      30.01F
HAYDEN         FAIR      23  14  68 NE5       30.00F WCI  17
MEEKER         FAIR      29  17  61 SW6       30.00F WCI  23
MOUNT WERNER   NOT AVBL
STEAMBOAT SPGS CLOUDY    28  19  70 CALM      30.00F
WALDEN           N/A     23  10  58 S17G26    29.95F VSB 1   WCI   9
$$

COZ006>008-011-222100-
...WEST CENTRAL VALLEYS...

CITY           SKY/WX    TMP DP  RH WIND       PRES   REMARKS
GRAND JUNCTION FAIR      39  25  57 S10G17    30.04F
MONTROSE       FAIR      36  13  38 CALM      30.07F
EAGLE          MOSUNNY   32  16  51 W13       30.04F WCI  22
RIFLE          FAIR      33  20  58 SW5       30.05F WCI  29
DELTA          FAIR      40  20  46 NE8       30.08F
NUCLA          FAIR      34  23  64 E3        30.10F
$$

COZ017>023-064>068-222100-
...SOUTHWEST COLORADO...

CITY           SKY/WX    TMP DP  RH WIND       PRES   REMARKS
DURANGO        FAIR      24  17  74 E7        30.12F WCI  16
CORTEZ         FAIR      29  23  78 CALM      30.11F
PAGOSA SPRINGS FAIR      28  16  62 SE5       30.10F WCI  22
TELLURIDE      FAIR      27   4  38 CALM      30.04F
WOLF CREEK PAS CLOUDY    10   9  92 S13G22    30.04F WCI  -5
$$

COZ009-010-012-014-032>034-037-058>063-222100-
...CENTRAL COLORADO...

CITY           SKY/WX    TMP DP  RH WIND       PRES   REMARKS
ASPEN          FAIR      28  12  51 N3        29.99F
BUENA VISTA    FAIR      29   7  38 W24       29.94F WCI  15
COPPER MTN     NOT AVBL
BERTHOUD PASS  NOT AVBL
COTTONWOOD PAS FAIR      30 -13  15 W20G29    29.93F WCI  18
GUNNISON       FAIR      22  12  65 NE7       30.06F WCI  13
KREMMLING      PTSUNNY   36  18  48 SW10G18   30.01F
LEADVILLE      FAIR      20   3  48 N12       29.94F WCI   8
MONARCH PASS     N/A      9   5  85 NW5       30.03F WCI   0
SALIDA         FAIR      34   9  35 SW15G25   30.04F WCI  24
SUNLIGHT         N/A    N/A N/A N/A MISG      30.00F
WILKERSON PASS FAIR      19  -4  35 W10G21    29.92F WCI   8
$$

COZ069>075-222100-
...SAN LUIS VALLEY/SANGRE DE CRISTO MOUNTAINS...

CITY           SKY/WX    TMP DP  RH WIND       PRES   REMARKS
ALAMOSA        FAIR      27  16  63 SE13      30.03F WCI  16
LA VETA PASS   FAIR      23   9  54 NE30G49   29.92F WCI   5
SAGUACHE       FAIR      28  14  54 S14       30.03F WCI  17
$$

COZ035-036-038>040-222100-
...NORTHERN COLORADO FRONT RANGE...

CITY           SKY/WX    TMP DP  RH WIND       PRES   REMARKS
DENVER INTL AP FAIR      45   6  20 W9        29.89F
DMNS CITY PARK   N/A     46   2  15 E5G16     29.89F
AURORA         MOSUNNY   44   6  21 W5        29.90F
FRONT RANGE AP NOT AVBL
ERIE MUNI ARPT FAIR      47   1  14 NW5       29.89F
BOULDER MUN AP FAIR      46   3  17 CALM      29.87F
CENTENNIAL     FAIR      43   1  17 CALM      29.89F
BROOMFIELD     MOSUNNY   46   1  15 MISG      29.89F
FORT COLLINS   FAIR      46  12  25 E3        29.89F
LONGMONT       FAIR      49   7  17 W8        29.90F
$$

COZ041-046-047-076>085-087-088-222100-
...PIKES PEAK/PALMER DIVIDE AND SOUTHERN FOOTHILLS...

CITY           SKY/WX    TMP DP  RH WIND       PRES   REMARKS
COLO. SPRINGS  FAIR      44   1  16 S9        29.92F
A. F. ACADEMY  FAIR      44  -4  13 SW6       29.89F
SCHRIEVER AFB  NOT AVBL
ELLICOTT       FAIR     N/A N/A N/A NE8       29.91F
FALCON         FAIR      42  -8  11 W7        29.92F
FORT CARSON    NOT AVBL
LIMON          FAIR      44  13  28 N7        29.91F
MONUMENT HILL  FAIR      36   3  25 W8        29.91F
TRINIDAD       FAIR      41  14  33 N9        29.95F
$$

COZ042>045-048>051-090-091-222100-
...NORTHEAST COLORADO...

CITY           SKY/WX    TMP DP  RH WIND       PRES   REMARKS
GREELEY ARPT   FAIR      46  10  23 SW5       29.91F
AKRON          FAIR      43  16  33 NW17      29.89F
BURLINGTON     FAIR      45  25  45 N15       29.91S
WRAY           NOT AVBL
STERLING       FAIR      46  18  31 NW21G30   29.88F
HOLYOKE        FAIR      52  25  35 NW17      29.88F
FORT MORGAN    FAIR      46  12  25 NW14G21   29.91F
$$

COZ086-089-092>099-222100-
...SOUTHEAST COLORADO...

CITY           SKY/WX    TMP DP  RH WIND       PRES   REMARKS
PUEBLO         FAIR      50   2  14 NW6       29.92F
LA JUNTA       FAIR      44  27  51 SW10      29.95S
LAMAR          FAIR      50  21  32 N16G24    29.91F
SPRINGFIELD      N/A     48  19  31 NW17      29.93S
$$




USA.gov is the U.S. government's official web portal to all federal, state and local government web resources and services.